| time (UTC) | temp F | wind direction | speed knots | gust knots | rain 1hr in | rain 24hr in | rain mn in | humidity % | barometer mb |
| 20260506121505 | 46 | 296 | 0.0 | 1.7 | 0.00 | 0.09 | 0.00 | 79 | 1009.6 |
| 20260506120004 | 46 | 298 | 0.0 | 0.0 | 0.00 | 0.09 | 0.00 | 80 | 1009.7 |
| 20260506114502 | 44 | 297 | 0.0 | 0.0 | 0.00 | 0.09 | 0.00 | 83 | 1009.3 |
| 20260506113100 | 43 | 298 | 0.0 | 0.0 | 0.00 | 0.09 | 0.00 | 82 | 1009.1 |
| 20260506111558 | 44 | 298 | 0.0 | 0.9 | 0.00 | 0.09 | 0.00 | 79 | 1009.0 |
| 20260506110053 | 45 | 298 | 0.0 | 0.0 | 0.00 | 0.09 | 0.00 | 78 | 1008.7 |
| 20260506104551 | 45 | 298 | 0.0 | 0.9 | 0.00 | 0.09 | 0.00 | 76 | 1008.6 |
| 20260506103047 | 46 | 298 | 0.0 | 0.9 | 0.00 | 0.09 | 0.00 | 74 | 1008.4 |
| 20260506101545 | 46 | 298 | 0.0 | 0.9 | 0.00 | 0.09 | 0.00 | 73 | 1008.4 |
| 20260506100046 | 46 | 297 | 0.0 | 0.9 | 0.00 | 0.09 | 0.00 | 70 | 1008.0 |
| 20260506094545 | 46 | 297 | 0.0 | 0.9 | 0.00 | 0.09 | 0.00 | 70 | 1007.9 |
| 20260506093101 | 46 | 298 | 0.0 | 0.9 | 0.00 | 0.09 | 0.00 | 69 | 1007.8 |
| 20260506091537 | 46 | 298 | 0.9 | 2.6 | 0.00 | 0.09 | 0.00 | 67 | 1007.8 |
| 20260506090039 | 47 | 321 | 0.0 | 0.9 | 0.00 | 0.09 | 0.00 | 67 | 1007.4 |
| 20260506084535 | 47 | 321 | 0.0 | 0.9 | 0.00 | 0.09 | 0.00 | 66 | 1007.5 |
| 20260506083037 | 47 | 280 | 0.0 | 1.7 | 0.00 | 0.09 | 0.00 | 65 | 1007.4 |
| 20260506081532 | 47 | 315 | 0.0 | 2.6 | 0.00 | 0.09 | 0.00 | 64 | 1007.3 |
| 20260506073029 | 47 | 26 | 0.0 | 0.9 | 0.00 | 0.09 | 0.00 | 63 | 1007.5 |
| 20260506071528 | 47 | 25 | 0.0 | 1.7 | 0.00 | 0.09 | 0.00 | 62 | 1007.2 |
| 20260506061523 | 47 | 113 | 0.0 | 0.9 | 0.00 | 0.10 | 0.00 | 64 | 1007.7 |
| 20260506044516 | 48 | 107 | 0.0 | 0.9 | 0.00 | 0.18 | 0.00 | 63 | 1007.4 |
| 20260506043013 | 48 | 108 | 0.0 | 1.7 | 0.00 | 0.18 | 0.00 | 61 | 1007.3 |
| 20260506041511 | 48 | 228 | 0.0 | 0.0 | 0.00 | 0.18 | 0.00 | 63 | 1007.4 |
| 20260506040008 | 48 | 228 | 0.0 | 0.9 | 0.00 | 0.18 | 0.00 | 62 | 1007.0 |
| 20260506034507 | 49 | 228 | 0.0 | 0.0 | 0.00 | 0.18 | 0.18 | 63 | 1007.2 |
| 20260506033006 | 49 | 228 | 0.0 | 0.9 | 0.00 | 0.18 | 0.18 | 63 | 1007.4 |
| 20260506031504 | 49 | 228 | 0.0 | 0.0 | 0.00 | 0.18 | 0.18 | 58 | 1007.5 |
| 20260506030004 | 49 | 227 | 0.0 | 0.9 | 0.00 | 0.18 | 0.18 | 57 | 1007.3 |
| 20260506024504 | 49 | 228 | 0.0 | 0.0 | 0.00 | 0.18 | 0.18 | 58 | 1007.4 |
| 20260506023001 | 50 | 228 | 0.0 | 0.0 | 0.00 | 0.18 | 0.18 | 59 | 1007.4 |
| 20260506021559 | 50 | 228 | 0.0 | 0.0 | 0.00 | 0.18 | 0.18 | 56 | 1007.4 |
| 20260506020123 | 50 | 228 | 0.0 | 0.9 | 0.00 | 0.18 | 0.18 | 55 | 1007.3 |
| 20260506014557 | 50 | 228 | 0.0 | 0.9 | 0.00 | 0.23 | 0.18 | 52 | 1007.0 |
| 20260506013055 | 51 | 228 | 0.0 | 0.9 | 0.00 | 0.23 | 0.18 | 52 | 1006.9 |
| 20260506011556 | 51 | 228 | 0.0 | 0.9 | 0.00 | 0.23 | 0.18 | 50 | 1006.7 |
| 20260506010053 | 51 | 257 | 0.0 | 0.9 | 0.00 | 0.23 | 0.18 | 50 | 1006.7 |
| 20260506004553 | 52 | 159 | 0.0 | 1.7 | 0.00 | 0.23 | 0.18 | 50 | 1006.7 |
| 20260506003051 | 52 | 166 | 0.0 | 1.7 | 0.00 | 0.23 | 0.18 | 51 | 1006.6 |
| 20260506001556 | 52 | 236 | 0.0 | 0.9 | 0.00 | 0.23 | 0.18 | 60 | 1006.4 |
| 20260506000059 | 52 | 235 | 0.0 | 0.9 | 0.00 | 0.23 | 0.18 | 58 | 1006.4 |
| 20260505234546 | 53 | 255 | 0.0 | 1.7 | 0.00 | 0.23 | 0.18 | 57 | 1006.0 |
| 20260505233051 | 53 | 146 | 0.0 | 0.9 | 0.00 | 0.23 | 0.18 | 57 | 1005.9 |
| 20260505231552 | 54 | 248 | 0.0 | 0.9 | 0.00 | 0.23 | 0.18 | 56 | 1005.8 |
| 20260505230049 | 54 | 249 | 0.0 | 0.9 | 0.00 | 0.23 | 0.18 | 59 | 1005.9 |
| 20260505224548 | 54 | 252 | 0.0 | 1.7 | 0.00 | 0.23 | 0.18 | 57 | 1006.0 |
| 20260505223044 | 54 | 195 | 0.0 | 2.6 | 0.00 | 0.23 | 0.18 | 58 | 1006.0 |
| 20260505221549 | 55 | 167 | 0.0 | 3.5 | 0.00 | 0.23 | 0.18 | 59 | 1006.0 |
| 20260505220048 | 55 | 145 | 0.9 | 2.6 | 0.00 | 0.23 | 0.18 | 68 | 1005.9 |
| 20260505214546 | 55 | 221 | 0.0 | 1.7 | 0.00 | 0.23 | 0.18 | 73 | 1006.0 |
| 20260505213040 | 55 | 121 | 0.0 | 4.3 | 0.00 | 0.23 | 0.18 | 73 | 1005.8 |
| 20260505211607 | 55 | 29 | 0.9 | 3.5 | 0.00 | 0.23 | 0.18 | 74 | 1005.9 |
| 20260505210043 | 54 | 111 | 0.0 | 3.5 | 0.00 | 0.23 | 0.18 | 76 | 1005.9 |
| 20260505204553 | 53 | 118 | 0.9 | 2.6 | 0.00 | 0.23 | 0.18 | 76 | 1006.0 |
| 20260505203037 | 53 | 79 | 0.9 | 1.7 | 0.00 | 0.23 | 0.18 | 78 | 1006.0 |
| 20260505201539 | 53 | 71 | 0.9 | 2.6 | 0.00 | 0.23 | 0.18 | 78 | 1006.0 |
| 20260505200037 | 52 | 208 | 0.0 | 6.1 | 0.00 | 0.23 | 0.18 | 79 | 1005.9 |
| 20260505194536 | 52 | 112 | 0.0 | 5.2 | 0.00 | 0.23 | 0.18 | 80 | 1006.1 |
| 20260505193035 | 52 | 101 | 0.0 | 2.6 | 0.00 | 0.23 | 0.18 | 81 | 1006.2 |
| 20260505191535 | 51 | 155 | 0.9 | 3.5 | 0.00 | 0.23 | 0.18 | 81 | 1006.2 |
| 20260505190037 | 51 | 238 | 0.9 | 4.3 | 0.00 | 0.23 | 0.18 | 82 | 1006.3 |
| 20260505184539 | 51 | 290 | 0.0 | 3.5 | 0.00 | 0.23 | 0.18 | 83 | 1006.3 |
| 20260505183030 | 51 | 148 | 0.9 | 3.5 | 0.00 | 0.23 | 0.18 | 85 | 1005.9 |
| 20260505181530 | 51 | 140 | 0.0 | 4.3 | 0.01 | 0.23 | 0.18 | 87 | 1005.7 |
| 20260505180027 | 50 | 210 | 0.0 | 3.5 | 0.02 | 0.23 | 0.18 | 89 | 1005.6 |
| 20260505174535 | 50 | 284 | 0.9 | 3.5 | 0.02 | 0.23 | 0.18 | 89 | 1005.5 |
| 20260505173023 | 50 | 166 | 0.0 | 2.6 | 0.05 | 0.23 | 0.18 | 89 | 1005.2 |
| 20260505171532 | 50 | 176 | 0.0 | 2.6 | 0.07 | 0.22 | 0.17 | 88 | 1005.1 |
| 20260505170021 | 50 | 274 | 0.0 | 4.3 | 0.07 | 0.21 | 0.16 | 87 | 1005.3 |
| 20260505164517 | 51 | 117 | 0.9 | 3.5 | 0.06 | 0.20 | 0.15 | 87 | 1005.7 |
| 20260505163014 | 53 | 266 | 0.0 | 1.7 | 0.03 | 0.17 | 0.12 | 83 | 1005.8 |
| 20260505161509 | 55 | 290 | 0.0 | 1.7 | 0.01 | 0.15 | 0.10 | 77 | 1005.6 |
| 20260505153003 | 57 | 155 | 0.0 | 1.7 | 0.00 | 0.14 | 0.09 | 60 | 1004.7 |
| 20260505151504 | 58 | 179 | 0.0 | 1.7 | 0.00 | 0.14 | 0.09 | 61 | 1004.4 |
| 20260505124542 | 61 | 188 | 0.0 | 4.3 | 0.00 | 0.14 | 0.09 | 75 | 1001.8 |
| 20260505123049 | 60 | 109 | 0.9 | 4.3 | 0.00 | 0.14 | 0.09 | 78 | 1001.9 |